Powrót do katalogu

STARLINK-35945

AktywnyŁącznośćVLEO
NORAD 66925·PAYLOAD·🇺🇸 United States

Wystrzelony Dec 7, 2025 z Vandenberg Space Force Base

Loading…

Następne Przeloty (najbliższe 24 godziny)

TLE

ŚwieżeSource: CelesTrak SupGP

Epoka: Sep 15, 2026, 02:48 UTC

1 66925C 25286A   26258.11715278 -.00047352  00000+0 -13991-2 0  2581
2 66925  53.1589 195.0940 0001402  79.2816  82.0448 15.34413219    19

Śledź STARLINK-35945 w czasie rzeczywistym z AllMySat

Download on the App Store